[Iaude] MPEC U30: 2023 TP16 [a=1.10,e=0.09,i=1.7,H=29.8]
    mpec at marsden.cfa.harvard.edu 
    mpec at marsden.cfa.harvard.edu
       
    Mon Oct 16 17:37:36 EDT 2023
    
    
  
M.P.E.C. 2023-U30                              Issued 2023 October 16, 21:36 UT
     The Minor Planet Electronic Circulars contain information on unusual
         minor planets, routine data on comets and natural satellites,
         and occasional editorial announcements.  They are published
    on behalf of Division F of the International Astronomical Union by the
          Minor Planet Center, Smithsonian Astrophysical Observatory,
                          Cambridge, MA 02138, U.S.A.
			  
             Prepared using the Tamkin Foundation Computer Network
                              MPC at CFA.HARVARD.EDU
            URL https://www.minorplanetcenter.net/    ISSN 1523-6714
                                   2023 TP16                                    
Observations:
     K23T16P*1C2023 10 15.20396523 56 38.432+01 36 52.88         20.90GVEU030G96
     K23T16P 1C2023 10 15.20912423 56 38.072+01 37 54.19         21.23GVEU030G96
     K23T16P 1C2023 10 15.21428123 56 37.720+01 38 55.79         21.22GVEU030G96
     K23T16P 1C2023 10 15.21944523 56 37.349+01 39 58.39         20.34GVEU030G96
     K23T16P  C2023 10 15.24344223 56 33.000+01 44 28.90         20.2 GVEU030H01
     K23T16P  C2023 10 15.24664023 56 32.778+01 45 07.33         20.7 GVEU030H01
     K23T16P  C2023 10 15.26162723 56 31.773+01 48 07.09         20.7 GVEU030H01
     K23T16P  C2023 10 15.26466423 56 31.576+01 48 43.45         21.2 GVEU030H01
     K23T16P KC2023 10 16.13350223 59 58.01 +04 49 00.9          20.8 GXEU030858
     K23T16P KC2023 10 16.14236623 59 57.89 +04 50 56.4          20.4 GXEU030858
     K23T16P KC2023 10 16.15059223 59 57.68 +04 52 44.2          20.8 GXEU030858
     K23T16P KC2023 10 16.15819800 00 01.163+04 54 52.56         20.75GVEU030I52
     K23T16P KC2023 10 16.15910300 00 01.170+04 55 04.80         21.29GVEU030I52
     K23T16P KC2023 10 16.15999700 00 01.145+04 55 16.64         20.95GVEU030I52
     K23T16P KC2023 10 16.16089000 00 01.120+04 55 28.27         21.40GVEU030I52
     K23T16P KB2023 10 16.83529 00 02 21.14 +07 22 19.1                ZEU030106
     K23T16P KB2023 10 16.84237 00 02 21.20 +07 23 56.9                ZEU030106
     K23T16P KB2023 10 16.84945 00 02 21.24 +07 25 33.9                ZEU030106
     K23T16P KB2023 10 16.85676 00 02 21.34 +07 27 13.9                ZEU030106
Observer details:
106 Crni Vrh.  Observer H. Mikuz.  0.60-m f/3.3 reflector + CMO.
858 Tebbutt Observatory, Edgewood.  Observer F. B. Zoltowski.  0.51-m f/8.1
    Schmidt-Cassegrain + CCD.
G96 Mt. Lemmon Survey.  Observer D. C. Fuls.  Measurers E. C. Beshore, D. Fay,
    J. B. Fazekas, D. C. Fuls, A. R. Gibbs, A. D. Grauer, H. Groeller, J. K.
    Hogan, R. A. Kowalski, S. M. Larson, G. J. Leonard, D. Rankin, R. L.
    Seaman, F. C. Shelly, K. W. Wierzchos.  1.5-m reflector + 10K CCD.
H01 Magdalena Ridge Observatory, Socorro.  Observers W. H. Ryan, E. V. Ryan.
    Measurer W. H. Ryan.  2.4-m f/8.9 Ritchey-Chretien + CCD.
I52 Steward Observatory, Mt. Lemmon Station.  Observer J. K. Hogan.  Measurers
    E. C. Beshore, D. Fay, J. B. Fazekas, D. C. Fuls, A. R. Gibbs, A. D.
    Grauer, H. Groeller, J. K. Hogan, R. A. Kowalski, S. M. Larson, G. J.
    Leonard, D. Rankin, R. L. Seaman, F. C. Shelly, K. W. Wierzchos.  1.0-m
    prime focus + CCD.
Orbital elements:
2023 TP16                                                Earth MOID = 0.0102 AU
Epoch 2023 Sept. 13.0 TT = JDT 2460200.5                Veres                   
M 311.23144              (2000.0)            P               Q                  
n   0.85623916     Peri.   25.52003     +0.69141159     -0.72238373             
a   1.0983464      Node    20.74341     +0.65762514     +0.62323634             
e   0.0885238      Incl.    1.71035     +0.29913072     +0.29956336             
P   1.15           H   29.80          G   0.15           U   7                  
Residuals in seconds of arc
231015 G96  0.0   0.8+    231015 H01  0.0   0.1-    231016 I52  0.1+  0.0
231015 G96  0.1-  0.2+    231016 858  0.2-  0.5+    231016 106  0.6-  0.3+
231015 G96  0.0   0.1-    231016 858  0.2-  0.2-    231016 106  0.6-  0.5+
231015 G96  0.0   0.5+    231016 858  0.8-  0.2-    231016 106  0.5-  0.0
231015 H01  0.0   0.1+    231016 I52  0.4-  0.4-    231016 106  0.8+  0.6-
231015 H01  0.0   0.1+    231016 I52  0.1+  0.0
231015 H01  0.0   0.0     231016 I52  0.1+  0.1+
Ephemeris:
2023 TP16                a,e,i = 1.10, 0.09, 2                   q = 1.0011
Date    TT    R. A. (2000) Decl.     Delta      r    Elong.  Phase     V
2023 09 16    23 27 56.3 -31 24 00   0.03434 1.0360   151.5    27.6    23.8
...
2023 10 01    23 32 45.1 -24 37 28   0.02143 1.0199   149.6    29.8    22.8
...
2023 10 09    23 42 06.2 -14 03 50   0.01550 1.0130   152.9    26.7    22.0
...
2023 10 15    23 55 50.4 +01 02 44   0.01193 1.0085   158.4    21.4    21.2
2023 10 16    23 59 06.3 +04 26 53   0.01146 1.0079   159.1    20.6    21.1
2023 10 17    00 02 45.5 +08 07 57   0.01103 1.0072   159.6    20.2    21.0
...
2023 10 23    00 36 52.8 +35 02 29   0.0097051.0037   151.2    28.6    21.0
...
2023 10 31    02 38 19.8 +66 36 06   0.01158 1.0000   127.1    52.3    22.0
...
2023 11 15    08 15 25.2 +68 37 19   0.02018 0.9973   112.7    66.2    23.7
M. P. C. Staff               (C) Copyright 2023 MPC           M.P.E.C. 2023-U30
    
    
More information about the Iaude
mailing list